COSMOS 1410

导读

**COSMOS 1410卫星摘要** COSMOS 1410(宇宙1410)是苏联(现归属独联体CIS)在1982年9月24日发射的人造卫星,属于苏联“宇宙”系列卫星家族。该系列命名方式模糊卫星具体用途,保密性较强,绝大多数为军用或科研用途,多数卫星已退役成为太空垃圾在轨漂浮。

Basic Information
目录编号:
13589
目录名称:
COSMOS 1410
国际标识:
1982-096A
轨道中心:
EARTH
卫星名称:
COSMOS 1410
卫星全名:
--
卫星状态:
在轨 (已飞行15972 天)
发射日期:
1982-09-24 UTC
国别 :
俄罗斯(独联体) (CIS)
星等 :
--
Orbit Information
数据来源 国际轨道数据 AOE轨道数据
星历时间 2026-06-17T11:37:55+0800
5小时前
查看轨道信息
2026-06-15T06:00:00+0800
2天前
查看轨道信息
半长轴 7874.785km 7874.784km
偏心率 0.0005558 0.0005507
轨道倾角 82.609° 82.610°
近地点辐角 320.769° 325.498°
升交点赤经 112.160° 113.528°
平近点角 50.117° 135.783°
近地点 1492.271km 1492.31km
远地点 1501.025km 1500.984km
周期 115.909分钟 115.909分钟
每日圈数 12.423523 12.423525
Detailed Information
使用方式:
暂无
2D Orbit Map
3D Orbit Map
Orbit Altitude Analysis Chart
Orbit Inclination Analysis Chart
Orbit Comprehensive Analysis Chart
View Comprehensive Chart